Weather History for KEWR - April, 2014

Change the Weather History Date:

Wednesday, April 23, 2014

  Actual Average Record
Temperature  
Mean Temperature 54 °F 56 °F  
Max Temperature 63 °F 65 °F 88 °F (1996)
Min Temperature 44 °F 46 °F 32 °F (1933)
Degree Days  
Heating Degree Days 11 10  
Month to date heating degree days 295 315  
Since 1 July heating degree days 5004 4659  
Cooling Degree Days 0 1  
Month to date cooling degree days 8 2  
Year to date cooling degree days 8 3  
Growing Degree Days 4 (Base 50)    
Moisture  
Dew Point 36 °F    
Average Humidity 51    
Maximum Humidity 67    
Minimum Humidity 34    
Precipitation  
Precipitation T in 0.14 in 1.01 in (1986)
Month to date precipitation 1.96 3.28  
Year to date precipitation 13.33 13.88  
Snow  
Snow 0.00 in 0.00 in 0.10 in (1986)
Month to date snowfall 0.4 0.9  
Since 1 July snowfall 61.1 28.5  
Snow Depth 0.00 in    
Sea Level Pressure  
Sea Level Pressure 29.63 in    
Wind  
Wind Speed 20 mph (WNW)    
Max Wind Speed 35 mph    
Max Gust Speed 43 mph    
Visibility 10 miles    
Events      
T = Trace of Precipitation, MM = Missing Value Source: NWS Daily Summary

Daily Weather History Graph

Daily Weather History Graph

Search for Another Location

Airport or City:

Trip Planner

Search our weather history database for the weather conditions in past years. The results will help you decide how hot, cold, wet, or windy it might be!

Date:

Astronomy

Apr. 23, 2014 Rise Set
Actual Time 6:06 AM EDT 7:44 PM EDT
Civil Twilight 5:37 AM EDT 8:13 PM EDT
Nautical Twilight 5:02 AM EDT 8:48 PM EDT
Astronomical Twilight 4:25 AM EDT 9:26 PM EDT
Moon 2:38 AM EDT (4/23) 1:48 PM EDT (4/23)
Length of Visible Light 14h 36m
Length of Day
13h 38m
Waning Crescent, 35% of the Moon is Illuminated
Apr 23
Waning Crescent
Apr 29
New
May 6
First Quarter
May 14
Full
May 21
Last Quarter

Hourly Weather History & Observations

Time (EDT) Temp. Windchill Dew Point Humidity Pressure Visibility Wind Dir Wind Speed Gust Speed Precip Events Conditions
12:51 AM 60.1 °F - 46.9 °F 62% 29.52 in 10.0 mi WSW 10.4 mph - N/A   Scattered Clouds
1:51 AM 57.9 °F - 46.9 °F 67% 29.50 in 10.0 mi WSW 10.4 mph - N/A   Partly Cloudy
2:51 AM 57.9 °F - 46.9 °F 67% 29.51 in 10.0 mi West 10.4 mph - N/A   Overcast
3:51 AM 57.0 °F - 45.0 °F 64% 29.51 in 10.0 mi WNW 11.5 mph - N/A   Overcast
4:51 AM 55.0 °F - 44.1 °F 67% 29.52 in 10.0 mi WNW 18.4 mph 28.8 mph N/A   Overcast
5:33 AM 51.8 °F - 37.4 °F 58% 29.55 in 10.0 mi NW 20.7 mph 31.1 mph N/A   Mostly Cloudy
5:51 AM 51.1 °F - 36.0 °F 56% 29.56 in 10.0 mi WNW 19.6 mph 27.6 mph N/A   Mostly Cloudy
6:51 AM 50.0 °F - 32.0 °F 50% 29.58 in 10.0 mi WNW 15.0 mph 31.1 mph N/A   Scattered Clouds
7:51 AM 51.8 °F - 32.0 °F 47% 29.59 in 10.0 mi WNW 18.4 mph 31.1 mph N/A   Mostly Cloudy
8:51 AM 51.1 °F - 34.0 °F 52% 29.60 in 10.0 mi WNW 24.2 mph 35.7 mph N/A   Mostly Cloudy
9:51 AM 54.0 °F - 34.0 °F 47% 29.61 in 10.0 mi NW 25.3 mph 34.5 mph N/A   Mostly Cloudy
10:51 AM 52.0 °F - 35.1 °F 53% 29.61 in 10.0 mi WNW 21.9 mph 34.5 mph 0.00 in   Overcast
11:51 AM 54.0 °F - 35.1 °F 49% 29.61 in 10.0 mi WNW 19.6 mph 34.5 mph N/A   Mostly Cloudy
12:51 PM 57.0 °F - 35.1 °F 44% 29.60 in 10.0 mi WNW 26.5 mph 39.1 mph N/A   Mostly Cloudy
1:51 PM 60.1 °F - 35.1 °F 39% 29.60 in 10.0 mi NW 21.9 mph 42.6 mph N/A   Mostly Cloudy
2:51 PM 62.1 °F - 33.1 °F 34% 29.60 in 10.0 mi NNW 24.2 mph 38.0 mph N/A   Mostly Cloudy
3:51 PM 60.8 °F - 33.8 °F 36% 29.61 in 10.0 mi NW 23.0 mph 32.2 mph N/A   Mostly Cloudy
4:51 PM 60.1 °F - 34.0 °F 38% 29.65 in 10.0 mi NW 27.6 mph 40.3 mph N/A   Mostly Cloudy
5:51 PM 57.0 °F - 32.0 °F 39% 29.68 in 10.0 mi NW 27.6 mph 41.4 mph N/A   Scattered Clouds
6:51 PM 52.0 °F - 32.0 °F 47% 29.71 in 10.0 mi NW 31.1 mph 42.6 mph N/A   Scattered Clouds
7:51 PM 50.0 °F - 30.9 °F 48% 29.76 in 10.0 mi NNW 20.7 mph 28.8 mph N/A   Mostly Cloudy
8:51 PM 48.0 °F - 28.0 °F 46% 29.81 in 10.0 mi NW 23.0 mph 41.4 mph N/A   Mostly Cloudy
9:51 PM 46.9 °F - 28.9 °F 50% 29.83 in 10.0 mi NW 15.0 mph 26.5 mph N/A   Overcast
10:51 PM 46.0 °F 38.0 °F 28.9 °F 51% 29.84 in 10.0 mi NW 21.9 mph 33.4 mph N/A   Overcast
11:51 PM 45.0 °F 38.5 °F 28.9 °F 53% 29.86 in 10.0 mi NW 13.8 mph 28.8 mph N/A   Partly Cloudy